Location: Im Fang
(46.6019°N, 7.2397°E)
Time: 23:36:25
(UTC+00:00)

STARLINK 1061 - Pass Details

Date: 08 December 2019
Orbit: 549 x 551 km, 53.0° (Epoch: 20 January)

Event Time Altitude Azimuth Distance (km) Brightness Sun altitude
Exits shadow 03:54:28 26° 65° (ENE) 1,167 5.7 -31.2°
Drops below altitude 10° 03:56:38 10° 83° (E) 1,890 7.2 -30.8°
Enters shadow 04:55:12 -67° 293° (WNW) 12,305 10.4 -20.9°
Maximum altitude 05:32:46 78° 213° (SSW) 595 3.7 -14.6°
